FW6397 Weather Reports


time (UTC)temp
F
wind
direction
speed
knots
gust
knots
rain 1hr
in
rain 24hr
in
rain mn
in
humidity
%
barometer
mb
20210414100109 66 352 1.7 5.2 0.00 0.00 0.00 22 1007.7
20210414095853 66 352 2.6 10.4 0.00 0.00 0.00 22 1007.6
20210414095253 65 352 1.7 10.4 0.00 0.00 0.00 23 1007.6
20210414094614 65 352 3.5 7.0 0.00 0.00 0.00 25 1007.6
20210414094038 65 352 1.7 5.2 0.00 0.00 0.00 26 1007.6
20210414093537 66 352 2.6 5.2 0.00 0.00 0.00 26 1007.5
20210414093145 66 352 1.7 3.5 0.00 0.00 0.00 26 1007.5
20210414092855 66 352 1.7 3.5 0.00 0.00 0.00 27 1007.5
20210414092439 66 352 1.7 4.3 0.00 0.00 0.00 27 1007.5
20210414091553 67 352 2.6 4.3 0.00 0.00 0.00 27 1007.4
20210414091053 68 352 1.7 7.8 0.00 0.00 0.00 27 1007.4
20210414090539 68 352 3.5 11.3 0.00 0.00 0.00 25 1007.6
20210414090518 68 352 2.6 11.3 0.00 0.00 0.00 25 1007.6
20210414090122 69 352 6.1 13.0 0.00 0.00 0.00 25 1007.6
20210414085817 69 352 5.2 13.0 0.00 0.00 0.00 25 1007.7
20210414085334 69 352 4.3 11.3 0.00 0.00 0.00 26 1007.8
20210414084639 69 352 5.2 11.3 0.00 0.00 0.00 26 1007.8
20210414084040 68 352 7.0 10.4 0.00 0.00 0.00 26 1007.8
20210414083534 67 352 6.1 11.3 0.00 0.00 0.00 27 1008.0
20210414083113 67 352 2.6 5.2 0.00 0.00 0.00 29 1008.1
20210414082744 67 352 3.5 5.2 0.00 0.00 0.00 28 1008.2
20210414082249 67 352 2.6 5.2 0.00 0.00 0.00 27 1008.1
20210414081559 66 352 1.7 3.5 0.00 0.00 0.00 28 1008.3
20210414081029 67 352 0.9 3.5 0.00 0.00 0.00 27 1008.2
20210414080633 67 352 0.9 3.5 0.00 0.00 0.00 27 1008.2
20210414080055 68 352 0.0 2.6 0.00 0.00 0.00 26 1008.2
20210414075746 68 352 0.9 3.5 0.00 0.00 0.00 26 1008.2
20210414075356 68 352 0.9 3.5 0.00 0.00 0.00 26 1008.3
20210414074605 68 352 0.9 4.3 0.00 0.00 0.00 26 1008.2
20210414074043 69 352 1.7 7.0 0.00 0.00 0.00 25 1008.2
20210414073531 69 352 2.6 7.0 0.00 0.00 0.00 25 1008.2
20210414073128 69 352 2.6 5.2 0.00 0.00 0.00 25 1008.2
20210414072833 69 352 1.7 7.8 0.00 0.00 0.00 25 1008.2
20210414072350 69 352 3.5 9.6 0.00 0.00 0.00 25 1008.2
20210414071535 69 352 3.5 9.6 0.00 0.00 0.00 25 1008.2
20210414071038 69 352 4.3 9.6 0.00 0.00 0.00 25 1008.2
20210414070521 70 352 3.5 10.4 0.00 0.00 0.00 24 1008.1
20210414070123 70 352 4.3 10.4 0.00 0.00 0.00 24 1008.0
20210414065924 70 352 4.3 8.7 0.00 0.00 0.00 25 1008.0
20210414065539 70 352 3.5 8.7 0.00 0.00 0.00 25 1008.0
20210414064546 70 352 4.3 8.7 0.00 0.00 0.00 25 1007.9
20210414064029 70 352 2.6 5.2 0.00 0.00 0.00 26 1007.9
20210414063517 70 352 0.9 7.8 0.00 0.00 0.00 26 1007.9
20210414063103 70 352 2.6 7.8 0.00 0.00 0.00 26 1007.8
20210414062756 70 352 0.9 7.0 0.00 0.00 0.00 26 1007.8
20210414062233 71 352 2.6 7.0 0.00 0.00 0.00 26 1007.7
20210414061521 71 352 3.5 7.0 0.00 0.00 0.00 26 1007.6
20210414061023 71 352 1.7 7.0 0.00 0.00 0.00 26 1007.4
20210414060529 71 352 1.7 11.3 0.00 0.00 0.00 26 1007.4
20210414060229 71 352 6.1 11.3 0.00 0.00 0.00 26 1007.3
20210414055940 72 352 2.6 9.6 0.00 0.00 0.00 26 1007.2
20210414055153 72 352 3.5 9.6 0.00 0.00 0.00 26 1007.2
20210414054530 72 352 6.1 12.2 0.00 0.00 0.00 25 1007.3
20210414054032 72 352 6.1 11.3 0.00 0.00 0.00 25 1007.3
20210414053029 73 352 3.5 11.3 0.00 0.00 0.00 25 1007.2
20210414052832 73 352 3.5 8.7 0.00 0.00 0.00 25 1007.1
20210414052349 73 352 4.3 10.4 0.00 0.00 0.00 25 1007.0
20210414051517 73 352 4.3 7.8 0.00 0.00 0.00 26 1006.9
20210414051020 73 352 1.7 5.2 0.00 0.00 0.00 26 1006.9
20210414050513 73 352 1.7 9.6 0.00 0.00 0.00 25 1006.9
20210414050240 74 352 2.6 9.6 0.00 0.00 0.00 25 1006.8
20210414050041 74 352 4.3 8.7 0.00 0.00 0.00 25 1006.8
20210414045740 74 352 2.6 7.8 0.00 0.00 0.00 25 1006.8
20210414044526 74 352 2.6 5.2 0.00 0.00 0.00 25 1006.6
20210414044022 74 352 1.7 3.5 0.00 0.00 0.00 25 1006.6
20210414043514 74 352 0.9 3.5 0.00 0.00 0.00 25 1006.6
20210414043047 74 352 1.7 5.2 0.00 0.00 0.00 25 1006.4
20210414042850 74 352 0.9 5.2 0.00 0.00 0.00 25 1006.3
20210414042244 74 352 0.0 4.3 0.00 0.00 0.00 25 1006.4
20210414041523 74 352 1.7 4.3 0.00 0.00 0.00 25 1006.3
20210414041035 74 352 0.9 4.3 0.00 0.00 0.00 25 1006.2
20210414040637 75 352 1.7 4.3 0.00 0.00 0.00 25 1006.2
20210414040242 75 352 1.7 7.0 0.00 0.00 0.00 25 1006.2
20210414035958 75 352 2.6 7.0 0.00 0.00 0.00 25 1006.2
20210414035308 75 352 2.6 7.8 0.00 0.00 0.00 26 1006.1
20210414034531 75 352 2.6 7.8 0.00 0.00 0.00 26 1006.0
20210414034023 75 352 2.6 7.8 0.00 0.00 0.00 26 1006.0
20210414033548 75 352 1.7 7.0 0.00 0.00 0.00 26 1006.0
20210414033346 75 352 2.6 8.7 0.00 0.00 0.00 25 1005.9
20210414033116 76 352 4.3 10.4 0.00 0.00 0.00 25 1005.9
20210414032513 76 352 6.1 10.4 0.00 0.00 0.00 25 1006.2
20210414031534 76 352 2.6 9.6 0.00 0.00 0.00 25 1006.1
20210414031035 76 352 5.2 9.6 0.00 0.00 0.00 25 1006.0
20210414030512 77 352 3.5 9.6 0.00 0.00 0.00 24 1005.9
20210414030052 77 352 5.2 10.4 0.00 0.00 0.00 24 1005.7
20210414025918 77 352 6.1 10.4 0.00 0.00 0.00 23 1005.6
20210414025337 78 352 4.3 13.0 0.00 0.00 0.00 21 1005.5
20210414024527 78 352 7.0 13.0 0.00 0.00 0.00 16 1005.4
20210414024019 78 352 7.0 12.2 0.00 0.00 0.00 16 1005.4
20210414023515 79 352 6.1 15.6 0.00 0.00 0.00 15 1005.2
20210414023103 79 352 8.7 15.6 0.00 0.00 0.00 15 1005.1
20210414021646 79 352 7.0 13.9 0.00 0.00 0.00 13 1005.1
20210414021141 79 352 7.0 13.9 0.00 0.00 0.00 12 1005.0
20210414020601 79 352 7.0 13.0 0.00 0.00 0.00 11 1005.0
20210414020134 79 352 7.8 12.2 0.00 0.00 0.00 11 1005.0
20210414015957 80 352 6.1 14.8 0.00 0.00 0.00 12 1005.0
20210414015741 80 352 8.7 14.8 0.00 0.00 0.00 12 1005.0
20210414014619 80 352 8.7 14.8 0.00 0.00 0.00 12 1005.0
20210414014130 80 352 7.0 15.6 0.00 0.00 0.00 12 1005.0
20210414013621 81 352 10.4 16.5 0.00 0.00 0.00 12 1005.0
20210414013027 81 352 7.0 14.8 0.00 0.00 0.00 11 1004.8
20210414011633 81 352 7.0 13.0 0.00 0.00 0.00 10 1004.8
20210414011141 82 352 7.0 16.5 0.00 0.00 0.00 10 1004.7
20210414010558 82 347 8.7 15.6 0.00 0.00 0.00 10 1004.5
20210414010303 82 352 8.7 13.0 0.00 0.00 0.00 10 1004.5
20210414005935 83 352 5.2 12.2 0.00 0.00 0.00 10 1004.4
20210414004725 83 352 7.8 12.2 0.00 0.00 0.00 10 1004.4
20210414004122 83 352 7.0 15.6 0.00 0.00 0.00 10 1004.3
20210414003621 83 352 7.8 15.6 0.00 0.00 0.00 9 1004.3
20210414003310 83 352 7.8 15.6 0.00 0.00 0.00 10 1004.2
20210414002556 83 352 9.6 14.8 0.00 0.00 0.00 9 1004.1
20210414001641 83 352 4.3 13.9 0.00 0.00 0.00 9 1004.2
20210414001104 84 352 9.6 15.6 0.00 0.00 0.00 8 1004.0
20210414000616 84 352 7.8 15.6 0.00 0.00 0.00 8 1004.1
20210414000248 84 352 8.7 14.8 0.00 0.00 0.00 9 1004.1
20210413235857 84 352 8.7 16.5 0.00 0.00 0.00 8 1004.2
20210413234640 84 352 10.4 16.5 0.00 0.00 0.00 8 1004.1
20210413234129 85 352 8.7 17.4 0.00 0.00 0.00 8 1003.9
20210413233621 85 352 10.4 17.4 0.00 0.00 0.00 8 1003.9
20210413233100 85 352 7.8 17.4 0.00 0.00 0.00 8 1004.0
20210413232545 85 352 10.4 17.4 0.00 0.00 0.00 8 1004.0
20210413231641 85 352 7.8 15.6 0.00 0.00 0.00 7 1003.9
20210413231055 86 352 6.1 12.2 0.00 0.00 0.00 8 1003.9
20210413230558 85 352 2.6 10.4 0.00 0.00 0.00 8 1004.0
20210413230346 84 352 4.3 13.9 0.00 0.00 0.00 8 1004.1
20210413230032 85 352 7.8 17.4 0.00 0.00 0.00 8 1004.3
20210413225751 85 352 11.3 17.4 0.00 0.00 0.00 8 1004.3
20210413224837 85 352 8.7 13.0 0.00 0.00 0.00 8 1004.1
20210413224055 86 352 4.3 13.9 0.00 0.00 0.00 8 1004.1
20210413223645 86 352 8.7 13.9 0.00 0.00 0.00 8 1004.1
20210413223136 85 352 4.3 14.8 0.00 0.00 0.00 9 1004.2
20210413222950 85 352 7.0 14.8 0.00 0.00 0.00 9 1004.3
20210413222713 85 352 7.0 14.8 0.00 0.00 0.00 8 1004.3
20210413221627 85 347 9.6 14.8 0.00 0.00 0.00 7 1004.4
20210413221051 85 352 8.7 16.5 0.00 0.00 0.00 7 1004.3
20210413220549 86 352 8.7 18.2 0.00 0.00 0.00 7 1004.4
20210413220432 85 352 11.3 18.2 0.00 0.00 0.00 7 1004.4
20210413220123 85 352 10.4 16.5 0.00 0.00 0.00 7 1004.3
20210413215658 86 352 10.4 19.1 0.00 0.00 0.00 7 1004.4
20210413214626 86 352 13.0 19.1 0.00 0.00 0.00 6 1004.4
20210413214045 86 352 7.0 15.6 0.00 0.00 0.00 7 1004.3
20210413213557 86 352 8.7 16.5 0.00 0.00 0.00 6 1004.4
20210413213114 86 352 12.2 16.5 0.00 0.00 0.00 6 1004.5
20210413212926 87 352 11.3 15.6 0.00 0.00 0.00 6 1004.7
20210413212617 86 352 7.0 17.4 0.00 0.00 0.00 7 1004.6
20210413211654 87 352 10.4 18.2 0.00 0.00 0.00 7 1004.8
20210413211041 85 352 4.3 16.5 0.00 0.00 0.00 7 1004.7
20210413210628 85 352 11.3 16.5 0.00 0.00 0.00 8 1004.9
20210413210107 85 352 6.1 13.9 0.00 0.00 0.00 8 1004.8
20210413205832 85 352 8.7 16.5 0.00 0.00 0.00 8 1004.9
20210413205344 86 352 9.6 20.9 0.00 0.00 0.00 8 1005.1
20210413204631 85 352 9.6 20.9 0.00 0.00 0.00 8 1005.1
20210413204038 85 352 8.7 14.8 0.00 0.00 0.00 8 1005.2
20210413203846 85 352 7.0 13.9 0.00 0.00 0.00 8 1005.2
20210413203221 85 352 7.0 16.5 0.00 0.00 0.00 8 1005.5
20210413202959 85 352 7.8 16.5 0.00 0.00 0.00 9 1005.5
20210413202415 85 352 9.6 16.5 0.00 0.00 0.00 8 1005.5
20210413201650 85 352 5.2 17.4 0.00 0.00 0.00 8 1005.5
20210413200540 85 352 6.1 12.2 0.00 0.00 0.00 9 1005.7
20210413200318 85 352 7.0 12.2 0.00 0.00 0.00 9 1005.8
20210413195339 84 352 9.6 14.8 0.00 0.00 0.00 9 1006.0
20210413194557 83 352 6.1 13.9 0.00 0.00 0.00 9 1006.1
20210413194042 83 352 1.7 13.9 0.00 0.00 0.00 9 1006.2
20210413193546 84 352 6.1 13.9 0.00 0.00 0.00 9 1006.1
20210413193155 83 352 5.2 14.8 0.00 0.00 0.00 9 1006.2
20210413192950 84 352 7.8 14.8 0.00 0.00 0.00 8 1006.3
20210413192657 83 352 9.6 16.5 0.00 0.00 0.00 8 1006.3
20210413191624 84 352 9.6 16.5 0.00 0.00 0.00 8 1006.3
20210413191031 84 352 4.3 13.0 0.00 0.00 0.00 7 1006.2
20210413190537 83 352 5.2 13.0 0.00 0.00 0.00 8 1006.4
20210413190130 83 352 6.1 11.3 0.00 0.00 0.00 8 1006.4
20210413185923 82 352 5.2 10.4 0.00 0.00 0.00 8 1006.5
20210413185422 82 352 2.6 17.4 0.00 0.00 0.00 8 1006.6
20210413184539 81 352 3.5 17.4 0.00 0.00 0.00 8 1006.8
20210413184102 82 352 7.8 13.9 0.00 0.00 0.00 7 1006.8
20210413183535 82 352 7.8 14.8 0.00 0.00 0.00 8 1006.9
20210413183048 82 352 5.2 10.4 0.00 0.00 0.00 9 1006.9
20210413182852 81 352 5.2 11.3 0.00 0.00 0.00 8 1006.9
20210413182234 81 352 7.8 11.3 0.00 0.00 0.00 8 1007.0
20210413181622 81 352 3.5 13.0 0.00 0.00 0.00 9 1007.0
20210413181034 81 352 7.0 13.0 0.00 0.00 0.00 9 1007.1
20210413180528 80 352 6.1 12.2 0.00 0.00 0.00 9 1007.2
20210413180042 81 352 7.0 12.2 0.00 0.00 0.00 9 1007.1
20210413175825 81 352 2.6 12.2 0.00 0.00 0.00 9 1007.2
20210413175258 80 352 7.0 12.2 0.00 0.00 0.00 8 1007.2
20210413174528 80 352 5.2 12.2 0.00 0.00 0.00 9 1007.2
20210413174022 80 352 5.2 10.4 0.00 0.00 0.00 10 1007.3
20210413173524 79 352 6.1 11.3 0.00 0.00 0.00 11 1007.5
20210413173049 79 352 4.3 13.0 0.00 0.00 0.00 14 1007.3
20210413172915 79 352 7.8 21.7 0.00 0.00 0.00 13 1007.3
20210413172526 78 352 7.0 21.7 0.00 0.00 0.00 14 1007.3
20210413171552 78 352 3.5 13.9 0.00 0.00 0.00 13 1007.5
20210413171025 78 352 8.7 13.9 0.00 0.00 0.00 14 1007.6
20210413170519 77 352 7.0 15.6 0.00 0.00 0.00 14 1007.6
20210413170211 77 352 10.4 15.6 0.00 0.00 0.00 14 1007.6
20210413165903 77 352 6.1 12.2 0.00 0.00 0.00 17 1007.6
20210413165322 76 352 4.3 13.0 0.00 0.00 0.00 18 1007.8
20210413164528 76 352 7.8 13.0 0.00 0.00 0.00 18 1007.9
20210413164035 75 352 4.3 11.3 0.00 0.00 0.00 19 1007.9
20210413163511 75 352 7.0 11.3 0.00 0.00 0.00 21 1007.9
20210413163223 74 352 7.0 11.3 0.00 0.00 0.00 21 1008.0
20210413163018 75 352 5.2 10.4 0.00 0.00 0.00 21 1008.0
20210413162651 74 352 6.1 10.4 0.00 0.00 0.00 22 1008.1
20210413161514 74 352 5.2 12.2 0.00 0.00 0.00 22 1008.1
20210413161021 73 352 5.2 12.2 0.00 0.00 0.00 23 1008.3
20210413160530 73 352 3.5 9.6 0.00 0.00 0.00 24 1008.2
20210413160217 73 352 6.1 10.4 0.00 0.00 0.00 24 1008.2
20210413155953 73 352 6.1 9.6 0.00 0.00 0.00 24 1008.3
20210413155359 72 352 4.3 10.4 0.00 0.00 0.00 26 1008.3
20210413154519 72 352 5.2 12.2 0.00 0.00 0.00 26 1008.3
20210413154010 72 352 6.1 13.9 0.00 0.00 0.00 26 1008.3
20210413153242 72 352 5.2 11.3 0.00 0.00 0.00 26 1008.2
20210413152957 72 352 5.2 10.4 0.00 0.00 0.00 26 1008.3
20210413152630 72 352 6.1 10.4 0.00 0.00 0.00 26 1008.1
20210413151749 71 352 4.3 10.4 0.00 0.00 0.00 25 1008.2
20210413151058 71 352 3.5 9.6 0.00 0.00 0.00 26 1008.1
20210413150342 68 352 1.7 5.2 0.00 0.00 0.00 32 1007.7
20210413150044 67 352 1.7 5.2 0.00 0.00 0.00 33 1007.7
20210413144704 67 352 2.6 7.0 0.00 0.00 0.00 33 1007.8
20210413144054 66 352 2.6 7.0 0.00 0.00 0.00 34 1007.8
20210413143618 66 352 3.5 7.8 0.00 0.00 0.00 34 1007.8
20210413143236 65 352 4.3 7.8 0.00 0.00 0.00 35 1007.6
20210413143042 65 352 4.3 7.8 0.00 0.00 0.00 36 1007.5
20210413142448 64 352 3.5 8.7 0.00 0.00 0.00 37 1007.5
20210413141651 64 352 5.2 8.7 0.00 0.00 0.00 37 1007.6
20210413141058 63 352 3.5 7.0 0.00 0.00 0.00 38 1007.6
20210413140553 63 352 3.5 7.8 0.00 0.00 0.00 38 1007.7
20210413140200 62 352 3.5 7.8 0.00 0.00 0.00 39 1007.8
20210413140057 62 352 2.6 5.2 0.00 0.00 0.00 40 1007.6
20210413135807 62 352 2.6 5.2 0.00 0.00 0.00 40 1007.5
20210413134711 62 352 1.7 4.3 0.00 0.00 0.00 40 1007.5
20210413134101 61 352 2.6 4.3 0.00 0.00 0.00 40 1007.5
20210413133553 61 352 2.6 5.2 0.00 0.00 0.00 40 1007.5
20210413133234 61 352 2.6 5.2 0.00 0.00 0.00 40 1007.4
20210413132955 61 352 1.7 4.3 0.00 0.00 0.00 41 1007.3
20210413132532 61 352 1.7 4.3 0.00 0.00 0.00 41 1007.1
20210413131657 61 352 1.7 5.2 0.00 0.00 0.00 41 1007.0
20210413131113 61 352 2.6 5.2 0.00 0.00 0.00 40 1007.0
20210413130547 61 352 1.7 3.5 0.00 0.00 0.00 40 1007.0
20210413130142 61 352 1.7 4.3 0.00 0.00 0.00 40 1007.0
20210413130114 61 352 1.7 4.3 0.00 0.00 0.00 40 1007.0
20210413125912 60 352 1.7 5.2 0.00 0.00 0.00 40 1007.0
20210413125127 60 352 2.6 5.2 0.00 0.00 0.00 41 1007.1
20210413124045 60 352 1.7 4.3 0.00 0.00 0.00 41 1007.1
20210413123635 60 352 1.7 4.3 0.00 0.00 0.00 40 1007.0
20210413122943 61 352 0.0 3.5 0.00 0.00 0.00 39 1006.8
20210413121625 61 352 1.7 3.5 0.00 0.00 0.00 39 1006.8
20210413121122 62 352 1.7 2.6 0.00 0.00 0.00 39 1006.7
20210413120548 62 352 0.9 3.5 0.00 0.00 0.00 39 1006.6
20210413120225 62 352 0.9 3.5 0.00 0.00 0.00 39 1006.6
20210413115947 61 352 1.7 3.5 0.00 0.00 0.00 39 1006.5
20210413114624 62 352 1.7 4.3 0.00 0.00 0.00 39 1006.5
20210413114109 62 352 2.6 4.3 0.00 0.00 0.00 38 1006.5
20210413113545 62 352 1.7 2.6 0.00 0.00 0.00 38 1006.4
20210413113120 62 352 0.9 2.6 0.00 0.00 0.00 38 1006.5
20210413112922 63 352 0.0 5.2 0.00 0.00 0.00 37 1006.4
20210413111746 63 352 1.7 5.2 0.00 0.00 0.00 37 1006.4
20210413111057 63 352 1.7 2.6 0.00 0.00 0.00 37 1006.4
20210413110600 63 352 0.9 3.5 0.00 0.00 0.00 36 1006.4
20210413110227 62 352 1.7 3.5 0.00 0.00 0.00 37 1006.3
20210413105913 62 352 0.9 2.6 0.00 0.00 0.00 38 1006.3
20210413104904 61 352 0.9 2.6 0.00 0.00 0.00 38 1006.3
20210413104055 61 352 0.0 2.6 0.00 0.00 0.00 38 1006.3
20210413103716 62 352 0.9 2.6 0.00 0.00 0.00 38 1006.3
20210413103421 62 352 0.0 1.7 0.00 0.00 0.00 37 1006.3
20210413103055 63 352 0.0 2.6 0.00 0.00 0.00 36 1006.3
20210413102705 63 352 0.9 2.6 0.00 0.00 0.00 36 1006.4
20210413101639 63 352 0.9 1.7 0.00 0.00 0.00 36 1006.2
20210413101041 63 352 0.0 1.7 0.00 0.00 0.00 36 1006.2
20210413100723 64 352 0.0 2.6 0.00 0.00 0.00 36 1006.2